| time (UTC) | temp F | wind direction | speed MPH | gust MPH | rain 1hr in | rain 24hr in | rain mn in | humidity % | barometer mb |
| 20260903153043 | 69 | 279 | 0.0 | 7.0 | 0.00 | 0.62 | 0.56 | 100 | 1016.5 |
| 20260903151541 | 68 | 9 | 1.0 | 4.0 | 0.00 | 0.62 | 0.56 | 100 | 1016.8 |
| 20260903150041 | 68 | 266 | 1.0 | 4.0 | 0.00 | 0.62 | 0.56 | 100 | 1016.8 |
| 20260903144539 | 67 | 36 | 1.0 | 6.0 | 0.00 | 0.62 | 0.56 | 100 | 1016.6 |
| 20260903143045 | 67 | 295 | 0.0 | 5.0 | 0.00 | 0.62 | 0.56 | 100 | 1016.7 |
| 20260903141546 | 66 | 306 | 2.0 | 6.0 | 0.00 | 0.62 | 0.56 | 100 | 1016.6 |
| 20260903140038 | 66 | 267 | 0.0 | 1.0 | 0.00 | 0.62 | 0.56 | 100 | 1016.4 |
| 20260903134534 | 66 | 320 | 0.0 | 7.0 | 0.00 | 0.62 | 0.56 | 100 | 1016.4 |
| 20260903133035 | 66 | 288 | 0.0 | 5.0 | 0.00 | 0.62 | 0.56 | 100 | 1016.1 |
| 20260903131530 | 65 | 339 | 1.0 | 4.0 | 0.00 | 0.62 | 0.56 | 100 | 1016.4 |
| 20260903130035 | 65 | 317 | 0.0 | 4.0 | 0.00 | 0.62 | 0.56 | 100 | 1016.2 |
| 20260903124529 | 65 | 285 | 0.0 | 4.0 | 0.00 | 0.62 | 0.56 | 100 | 1016.0 |
| 20260903123034 | 65 | 283 | 0.0 | 3.0 | 0.00 | 0.62 | 0.56 | 100 | 1016.3 |
| 20260903121528 | 65 | 289 | 0.0 | 3.0 | 0.00 | 0.62 | 0.56 | 100 | 1015.9 |
| 20260903120027 | 65 | 266 | 0.0 | 6.0 | 0.00 | 0.62 | 0.56 | 100 | 1016.1 |
| 20260903114526 | 64 | 264 | 1.0 | 6.0 | 0.00 | 0.62 | 0.56 | 100 | 1016.2 |
| 20260903113029 | 64 | 280 | 0.0 | 5.0 | 0.00 | 0.62 | 0.56 | 100 | 1016.1 |
| 20260903111535 | 64 | 234 | 0.0 | 4.0 | 0.00 | 0.62 | 0.56 | 100 | 1016.5 |
| 20260903110025 | 64 | 271 | 0.0 | 3.0 | 0.00 | 0.62 | 0.56 | 100 | 1016.3 |
| 20260903104524 | 64 | 303 | 1.0 | 4.0 | 0.00 | 0.62 | 0.56 | 100 | 1016.7 |
| 20260903103023 | 64 | 268 | 0.0 | 4.0 | 0.00 | 0.62 | 0.56 | 100 | 1016.9 |
| 20260903101534 | 64 | 291 | 0.0 | 4.0 | 0.00 | 0.62 | 0.56 | 100 | 1016.7 |
| 20260903100021 | 64 | 296 | 0.0 | 2.0 | 0.00 | 0.62 | 0.56 | 100 | 1016.7 |
| 20260903094522 | 64 | 302 | 0.0 | 3.0 | 0.00 | 0.62 | 0.56 | 100 | 1016.5 |
| 20260903093022 | 64 | 77 | 0.0 | 0.0 | 0.00 | 0.62 | 0.56 | 100 | 1016.2 |
| 20260903091521 | 64 | 164 | 0.0 | 1.0 | 0.01 | 0.62 | 0.56 | 100 | 1016.3 |
| 20260903090019 | 64 | 309 | 0.0 | 3.0 | 0.01 | 0.62 | 0.56 | 100 | 1016.5 |
| 20260903084521 | 64 | 8 | 0.0 | 2.0 | 0.03 | 0.62 | 0.56 | 100 | 1016.5 |
| 20260903083033 | 64 | 23 | 0.0 | 1.0 | 0.03 | 0.62 | 0.56 | 100 | 1016.5 |
| 20260903081529 | 64 | 212 | 0.0 | 1.0 | 0.02 | 0.61 | 0.55 | 100 | 1015.7 |
| 20260903080047 | 65 | 243 | 0.0 | 3.0 | 0.02 | 0.61 | 0.55 | 100 | 1015.4 |
| 20260903074513 | 65 | 271 | 0.0 | 4.0 | 0.01 | 0.59 | 0.53 | 100 | 1017.0 |
| 20260903073018 | 65 | 277 | 0.0 | 2.0 | 0.02 | 0.59 | 0.53 | 100 | 1017.3 |
| 20260903071512 | 65 | 51 | 0.0 | 1.0 | 0.02 | 0.59 | 0.53 | 100 | 1017.1 |
| 20260903070011 | 65 | 219 | 0.0 | 0.0 | 0.03 | 0.59 | 0.53 | 100 | 1016.8 |
| 20260903064510 | 64 | 198 | 0.0 | 0.0 | 0.04 | 0.57 | 0.52 | 100 | 1016.7 |
| 20260903063008 | 64 | 174 | 0.0 | 0.0 | 0.03 | 0.56 | 0.51 | 100 | 1016.8 |
| 20260903061505 | 64 | 231 | 0.0 | 1.0 | 0.04 | 0.56 | 0.51 | 100 | 1017.5 |
| 20260903060003 | 64 | 242 | 0.0 | 0.0 | 0.03 | 0.56 | 0.50 | 100 | 1017.9 |
| 20260903054501 | 64 | 248 | 0.0 | 0.0 | 0.05 | 0.54 | 0.48 | 100 | 1018.4 |
| 20260903053059 | 64 | 153 | 0.0 | 0.0 | 0.12 | 0.54 | 0.48 | 100 | 1018.6 |
| 20260903051558 | 64 | 153 | 0.0 | 0.0 | 0.20 | 0.53 | 0.47 | 100 | 1018.6 |
| 20260903050118 | 64 | 146 | 0.0 | 2.0 | 0.47 | 0.53 | 0.47 | 100 | 1018.4 |
| 20260903044553 | 64 | 23 | 0.0 | 0.0 | 0.46 | 0.49 | 0.43 | 100 | 1019.3 |
| 20260903043049 | 64 | 21 | 0.0 | 1.0 | 0.38 | 0.41 | 0.35 | 100 | 1020.1 |
| 20260903041552 | 64 | 32 | 3.0 | 10.0 | 0.30 | 0.33 | 0.27 | 100 | 1021.5 |
| 20260903040049 | 64 | 164 | 0.0 | 0.0 | 0.03 | 0.06 | 0.00 | 100 | 1020.7 |
| 20260903034543 | 63 | 164 | 0.0 | 0.0 | 0.00 | 0.03 | 0.03 | 100 | 1020.2 |
| 20260903033042 | 63 | 162 | 0.0 | 2.0 | 0.00 | 0.03 | 0.03 | 100 | 1019.5 |
| 20260903031541 | 63 | 153 | 0.0 | 2.0 | 0.00 | 0.03 | 0.03 | 100 | 1019.2 |
| 20260903030042 | 63 | 329 | 0.0 | 1.0 | 0.00 | 0.03 | 0.03 | 100 | 1019.5 |
| 20260903024540 | 63 | 146 | 0.0 | 2.0 | 0.00 | 0.03 | 0.03 | 100 | 1019.5 |
| 20260903023043 | 63 | 152 | 0.0 | 1.0 | 0.00 | 0.03 | 0.03 | 100 | 1019.8 |
| 20260903021539 | 63 | 150 | 0.0 | 2.0 | 0.00 | 0.03 | 0.03 | 100 | 1019.5 |
| 20260903020044 | 63 | 163 | 0.0 | 3.0 | 0.00 | 0.03 | 0.03 | 100 | 1019.8 |
| 20260903014548 | 63 | 152 | 0.0 | 2.0 | 0.00 | 0.03 | 0.03 | 100 | 1020.2 |
| 20260903013037 | 63 | 160 | 0.0 | 3.0 | 0.00 | 0.03 | 0.03 | 100 | 1019.6 |
| 20260903011554 | 63 | 151 | 0.0 | 3.0 | 0.00 | 0.03 | 0.03 | 100 | 1019.7 |
| 20260903010038 | 63 | 157 | 0.0 | 2.0 | 0.00 | 0.03 | 0.03 | 100 | 1019.8 |
| 20260903004536 | 62 | 158 | 0.0 | 3.0 | 0.00 | 0.03 | 0.03 | 100 | 1020.1 |
| 20260903003033 | 63 | 155 | 0.0 | 1.0 | 0.00 | 0.03 | 0.03 | 100 | 1019.7 |
| 20260903001535 | 63 | 144 | 0.0 | 3.0 | 0.00 | 0.03 | 0.03 | 100 | 1019.9 |
| 20260903000033 | 63 | 154 | 0.0 | 3.0 | 0.00 | 0.03 | 0.03 | 100 | 1019.6 |
| 20260902234538 | 63 | 162 | 0.0 | 1.0 | 0.00 | 0.03 | 0.03 | 100 | 1019.5 |
| 20260902233031 | 63 | 155 | 0.0 | 2.0 | 0.00 | 0.03 | 0.03 | 100 | 1019.4 |
| 20260902231546 | 63 | 155 | 0.0 | 2.0 | 0.00 | 0.03 | 0.03 | 100 | 1019.4 |
| 20260902230033 | 63 | 164 | 0.0 | 2.0 | 0.00 | 0.03 | 0.03 | 100 | 1019.8 |
| 20260902224529 | 63 | 153 | 0.0 | 2.0 | 0.00 | 0.03 | 0.03 | 100 | 1019.5 |
| 20260902223029 | 63 | 174 | 1.0 | 3.0 | 0.00 | 0.03 | 0.03 | 100 | 1019.6 |
| 20260902221528 | 63 | 171 | 0.0 | 2.0 | 0.00 | 0.03 | 0.03 | 100 | 1020.0 |
| 20260902220028 | 63 | 147 | 0.0 | 3.0 | 0.00 | 0.03 | 0.03 | 100 | 1019.9 |
| 20260902214530 | 63 | 179 | 0.0 | 2.0 | 0.00 | 0.06 | 0.03 | 100 | 1020.0 |
| 20260902213026 | 63 | 153 | 0.0 | 1.0 | 0.00 | 0.06 | 0.03 | 100 | 1020.0 |
| 20260902211531 | 63 | 149 | 0.0 | 2.0 | 0.00 | 0.06 | 0.03 | 100 | 1020.0 |
| 20260902210026 | 63 | 149 | 0.0 | 0.0 | 0.00 | 0.06 | 0.03 | 100 | 1020.2 |
| 20260902204525 | 63 | 153 | 0.0 | 0.0 | 0.00 | 0.06 | 0.03 | 100 | 1020.1 |
| 20260902203024 | 63 | 157 | 0.0 | 0.0 | 0.00 | 0.06 | 0.03 | 100 | 1020.3 |
| 20260902201625 | 63 | 153 | 0.0 | 2.0 | 0.00 | 0.06 | 0.03 | 100 | 1020.0 |
| 20260902200022 | 63 | 161 | 0.0 | 2.0 | 0.00 | 0.06 | 0.03 | 100 | 1019.8 |
| 20260902194523 | 63 | 153 | 0.0 | 1.0 | 0.00 | 0.06 | 0.03 | 100 | 1019.9 |
| 20260902193021 | 63 | 245 | 0.0 | 1.0 | 0.01 | 0.06 | 0.03 | 100 | 1020.2 |
| 20260902191528 | 63 | 288 | 0.0 | 0.0 | 0.02 | 0.06 | 0.03 | 100 | 1020.5 |
| 20260902190018 | 63 | 292 | 0.0 | 0.0 | 0.02 | 0.06 | 0.03 | 100 | 1020.8 |
| 20260902184518 | 62 | 292 | 0.0 | 0.0 | 0.02 | 0.06 | 0.03 | 100 | 1020.9 |
| 20260902183021 | 62 | 292 | 0.0 | 1.0 | 0.01 | 0.05 | 0.02 | 100 | 1021.1 |
| 20260902181516 | 62 | 323 | 0.0 | 2.0 | 0.01 | 0.04 | 0.01 | 100 | 1021.6 |
| 20260902180015 | 62 | 141 | 0.0 | 0.0 | 0.01 | 0.04 | 0.01 | 100 | 1021.0 |
| 20260902174517 | 62 | 141 | 0.0 | 1.0 | 0.01 | 0.04 | 0.01 | 100 | 1021.1 |
| 20260902173017 | 62 | 141 | 0.0 | 0.0 | 0.01 | 0.04 | 0.01 | 100 | 1020.9 |
| 20260902171514 | 62 | 153 | 0.0 | 0.0 | 0.00 | 0.03 | 0.00 | 100 | 1020.7 |
| 20260902170015 | 62 | 163 | 0.0 | 1.0 | 0.00 | 0.03 | 0.00 | 100 | 1021.0 |
| 20260902164512 | 62 | 162 | 0.0 | 1.0 | 0.00 | 0.03 | 0.00 | 100 | 1021.0 |
| 20260902163012 | 62 | 158 | 0.0 | 2.0 | 0.00 | 0.03 | 0.00 | 100 | 1020.8 |
| 20260902161518 | 62 | 150 | 0.0 | 1.0 | 0.00 | 0.03 | 0.00 | 100 | 1021.1 |
| 20260902160012 | 62 | 152 | 0.0 | 0.0 | 0.00 | 0.03 | 0.00 | 100 | 1021.4 |
| 20260902154523 | 62 | 152 | 0.0 | 1.0 | 0.00 | 0.05 | 0.00 | 100 | 1021.2 |